User: anonymous   Login
Location: Unspecified
(43.4680°N, 87.1740°E)
Time: 13:56:52
(UTC+00:00)
Language:

Cosmos 2366 rocket - Orbit

View from above orbital plane
View from above orbital plane
View from above satellite
View from above satellite

Ground track
Ground track

The orbit data is extracted from the following two-line orbital elements,

1 25893U 99045B   21170.84797238 -.00000026  00000-0 -41948-4 0  9993
2 25893  82.9258  14.9708 0027851 324.2453  46.0879 13.76550366 96021
Epoch (UTC): 19 June 2021 20:21:04
Eccentricity: 0.0027851
inclination: 82.9258°
perigee height: 955 km
apogee height: 996 km
right ascension of ascending node: 14.9708°
argument of perigee: 324.2453°
revolutions per day: 13.76550366
mean anomaly at epoch: 46.0879°
orbit number at epoch: 9602

The dashed part of the orbit path shows where the satellite is in the earth's shadow,  

DLR